Year,Month,Day,Hour,Minute,Value (Times are PST for temperature in C)
2012,08,25,00,00,8.40
2012,08,25,00,01,8.40
2012,08,25,00,02,8.30
2012,08,25,00,03,8.30
2012,08,25,00,04,8.30
2012,08,25,00,05,8.30
2012,08,25,00,06,8.30
2012,08,25,00,07,8.30
2012,08,25,00,08,8.30
2012,08,25,00,09,8.20
2012,08,25,00,10,8.20
2012,08,25,00,11,8.20
2012,08,25,00,12,8.20
2012,08,25,00,13,8.20
2012,08,25,00,14,8.20
2012,08,25,00,15,8.20
2012,08,25,00,16,8.20
2012,08,25,00,17,8.20
2012,08,25,00,18,8.10
2012,08,25,00,19,8.10
2012,08,25,00,20,8.10
2012,08,25,00,21,8.10
2012,08,25,00,22,8.10
2012,08,25,00,23,8.10
2012,08,25,00,24,8.10
2012,08,25,00,25,8.10
2012,08,25,00,26,8.10
2012,08,25,00,27,8.10
2012,08,25,00,28,8.10
2012,08,25,00,29,8.10
2012,08,25,00,30,8.10
2012,08,25,00,31,8.10
2012,08,25,00,32,8.00
2012,08,25,00,33,8.00
2012,08,25,00,34,8.00
2012,08,25,00,35,8.00
2012,08,25,00,36,8.00
2012,08,25,00,37,7.90
2012,08,25,00,38,7.90
2012,08,25,00,39,7.90
2012,08,25,00,40,7.90
2012,08,25,00,41,7.90
2012,08,25,00,42,7.90
2012,08,25,00,43,7.90
2012,08,25,00,44,7.90
2012,08,25,00,45,7.90
2012,08,25,00,46,7.80
2012,08,25,00,47,7.80
2012,08,25,00,48,7.80
2012,08,25,00,49,7.80
2012,08,25,00,50,7.80
2012,08,25,00,51,7.80
2012,08,25,00,52,7.80
2012,08,25,00,53,7.80
2012,08,25,00,54,7.80
2012,08,25,00,55,7.80
2012,08,25,00,56,7.80
2012,08,25,00,57,7.80
2012,08,25,00,58,7.80
2012,08,25,00,59,7.80
2012,08,25,01,00,7.80
2012,08,25,01,01,7.80
2012,08,25,01,02,7.80
2012,08,25,01,03,7.80
2012,08,25,01,04,7.80
2012,08,25,01,05,7.80
2012,08,25,01,06,7.80
2012,08,25,01,07,7.80
2012,08,25,01,08,7.80
2012,08,25,01,09,7.80
2012,08,25,01,10,7.80
2012,08,25,01,11,7.80
2012,08,25,01,12,7.80
2012,08,25,01,13,7.80
2012,08,25,01,14,7.80
2012,08,25,01,15,7.80
2012,08,25,01,16,7.80
2012,08,25,01,17,7.80
2012,08,25,01,18,7.80
2012,08,25,01,19,7.80
2012,08,25,01,20,7.80
2012,08,25,01,21,7.80
2012,08,25,01,22,7.70
2012,08,25,01,23,7.70
2012,08,25,01,24,7.70
2012,08,25,01,25,7.70
2012,08,25,01,26,7.70
2012,08,25,01,27,7.70
2012,08,25,01,28,7.70
2012,08,25,01,29,7.60
2012,08,25,01,30,7.60
2012,08,25,01,31,7.60
2012,08,25,01,32,7.60
2012,08,25,01,33,7.60
2012,08,25,01,34,7.60
2012,08,25,01,35,7.60
2012,08,25,01,36,7.50
2012,08,25,01,37,7.50
2012,08,25,01,38,7.50
2012,08,25,01,39,7.50
2012,08,25,01,40,7.50
2012,08,25,01,41,7.40
2012,08,25,01,42,7.40
2012,08,25,01,43,7.40
2012,08,25,01,44,7.40
2012,08,25,01,45,7.40
2012,08,25,01,46,7.40
2012,08,25,01,47,7.40
2012,08,25,01,48,7.40
2012,08,25,01,49,7.40
2012,08,25,01,50,7.40
2012,08,25,01,51,7.40
2012,08,25,01,52,7.40
2012,08,25,01,53,7.40
2012,08,25,01,54,7.40
2012,08,25,01,55,7.40
2012,08,25,01,56,7.40
2012,08,25,01,57,7.40
2012,08,25,01,58,7.40
2012,08,25,01,59,7.40
2012,08,25,02,00,7.40
2012,08,25,02,01,7.40
2012,08,25,02,02,7.40
2012,08,25,02,03,7.40
2012,08,25,02,04,7.30
2012,08,25,02,05,7.30
2012,08,25,02,06,7.30
2012,08,25,02,07,7.30
2012,08,25,02,08,7.30
2012,08,25,02,09,7.30
2012,08,25,02,10,7.30
2012,08,25,02,11,7.30
2012,08,25,02,12,7.30
2012,08,25,02,13,7.30
2012,08,25,02,14,7.20
2012,08,25,02,15,7.20
2012,08,25,02,16,7.20
2012,08,25,02,17,7.20
2012,08,25,02,18,7.20
2012,08,25,02,19,7.20
2012,08,25,02,20,7.20
2012,08,25,02,21,7.20
2012,08,25,02,22,7.20
2012,08,25,02,23,7.20
2012,08,25,02,24,7.20
2012,08,25,02,25,7.20
2012,08,25,02,26,7.20
2012,08,25,02,27,7.20
2012,08,25,02,28,7.20
2012,08,25,02,29,7.20
2012,08,25,02,30,7.20
2012,08,25,02,31,7.20
2012,08,25,02,32,7.20
2012,08,25,02,33,7.20
2012,08,25,02,34,7.20
2012,08,25,02,35,7.20
2012,08,25,02,36,7.20
2012,08,25,02,37,7.20
2012,08,25,02,38,7.20
2012,08,25,02,39,7.20
2012,08,25,02,40,7.20
2012,08,25,02,41,7.20
2012,08,25,02,42,7.20
2012,08,25,02,43,7.20
2012,08,25,02,44,7.20
2012,08,25,02,45,7.20
2012,08,25,02,46,7.20
2012,08,25,02,47,7.20
2012,08,25,02,48,7.20
2012,08,25,02,49,7.20
2012,08,25,02,50,7.20
2012,08,25,02,51,7.10
2012,08,25,02,52,7.10
2012,08,25,02,53,7.10
2012,08,25,02,54,7.10
2012,08,25,02,55,7.10
2012,08,25,02,56,7.10
2012,08,25,02,57,7.10
2012,08,25,02,58,7.10
2012,08,25,02,59,7.10
2012,08,25,03,00,7.10
2012,08,25,03,01,7.10
2012,08,25,03,02,7.10
2012,08,25,03,03,7.10
2012,08,25,03,04,7.10
2012,08,25,03,05,7.10
2012,08,25,03,06,7.10
2012,08,25,03,07,7.20
2012,08,25,03,08,7.20
2012,08,25,03,09,7.20
2012,08,25,03,10,7.20
2012,08,25,03,11,7.20
2012,08,25,03,12,7.20
2012,08,25,03,13,7.20
2012,08,25,03,14,7.20
2012,08,25,03,15,7.20
2012,08,25,03,16,7.20
2012,08,25,03,17,7.20
2012,08,25,03,18,7.20
2012,08,25,03,19,7.20
2012,08,25,03,20,7.20
2012,08,25,03,21,7.30
2012,08,25,03,22,7.30
2012,08,25,03,23,7.30
2012,08,25,03,24,7.30
2012,08,25,03,25,7.30
2012,08,25,03,26,7.30
2012,08,25,03,27,7.30
2012,08,25,03,28,7.30
2012,08,25,03,29,7.30
2012,08,25,03,30,7.30
2012,08,25,03,31,7.30
2012,08,25,03,32,7.30
2012,08,25,03,33,7.30
2012,08,25,03,34,7.30
2012,08,25,03,35,7.30
2012,08,25,03,36,7.40
2012,08,25,03,37,7.40
2012,08,25,03,38,7.40
2012,08,25,03,39,7.40
2012,08,25,03,40,7.50
2012,08,25,03,41,7.50
2012,08,25,03,42,7.50
2012,08,25,03,43,7.50
2012,08,25,03,44,7.50
2012,08,25,03,45,7.50
2012,08,25,03,46,7.60
2012,08,25,03,47,7.60
2012,08,25,03,48,7.60
2012,08,25,03,49,7.60
2012,08,25,03,50,7.60
2012,08,25,03,51,7.60
2012,08,25,03,52,7.60
2012,08,25,03,53,7.60
2012,08,25,03,54,7.60
2012,08,25,03,55,7.60
2012,08,25,03,56,7.60
2012,08,25,03,57,7.70
2012,08,25,03,58,7.70
2012,08,25,03,59,7.70
2012,08,25,04,00,7.70
2012,08,25,04,01,7.70
2012,08,25,04,02,7.70
2012,08,25,04,03,7.70
2012,08,25,04,04,7.70
2012,08,25,04,05,7.80
2012,08,25,04,06,7.80
2012,08,25,04,07,7.80
2012,08,25,04,08,7.80
2012,08,25,04,09,7.80
2012,08,25,04,10,7.90
2012,08,25,04,11,7.90
2012,08,25,04,12,7.90
2012,08,25,04,13,7.90
2012,08,25,04,14,8.00
2012,08,25,04,15,8.00
2012,08,25,04,16,8.00
2012,08,25,04,17,8.10
2012,08,25,04,18,8.10
2012,08,25,04,19,8.10
2012,08,25,04,20,8.10
2012,08,25,04,21,8.10
2012,08,25,04,22,8.10
2012,08,25,04,23,8.20
2012,08,25,04,24,8.20
2012,08,25,04,25,8.20
2012,08,25,04,26,8.20
2012,08,25,04,27,8.20
2012,08,25,04,28,8.20
2012,08,25,04,29,8.20
2012,08,25,04,30,8.20
2012,08,25,04,31,8.20
2012,08,25,04,32,8.30
2012,08,25,04,33,8.30
2012,08,25,04,34,8.30
2012,08,25,04,35,8.30
2012,08,25,04,36,8.40
2012,08,25,04,37,8.40
2012,08,25,04,38,8.40
2012,08,25,04,39,8.40
2012,08,25,04,40,8.40
2012,08,25,04,41,8.50
2012,08,25,04,42,8.50
2012,08,25,04,43,8.50
2012,08,25,04,44,8.50
2012,08,25,04,45,8.60
2012,08,25,04,46,8.60
2012,08,25,04,47,8.60
2012,08,25,04,48,8.60
2012,08,25,04,49,8.60
2012,08,25,04,50,8.60
2012,08,25,04,51,8.70
2012,08,25,04,52,8.70
2012,08,25,04,53,8.70
2012,08,25,04,54,8.70
2012,08,25,04,55,8.70
2012,08,25,04,56,8.70
2012,08,25,04,57,8.70
2012,08,25,04,58,8.70
2012,08,25,04,59,8.80
2012,08,25,05,00,8.80
2012,08,25,05,01,8.80
2012,08,25,05,02,8.80
2012,08,25,05,03,8.80
2012,08,25,05,04,8.80
2012,08,25,05,05,8.80
2012,08,25,05,06,8.80
2012,08,25,05,07,8.80
2012,08,25,05,08,8.80
2012,08,25,05,09,8.80
2012,08,25,05,10,8.80
2012,08,25,05,11,8.80
2012,08,25,05,12,8.80
2012,08,25,05,13,8.80
2012,08,25,05,14,8.80
2012,08,25,05,15,8.80
2012,08,25,05,16,8.80
2012,08,25,05,17,8.80
2012,08,25,05,18,8.80
2012,08,25,05,19,8.80
2012,08,25,05,20,8.80
2012,08,25,05,21,8.90
2012,08,25,05,22,8.90
2012,08,25,05,23,8.90
2012,08,25,05,24,8.90
2012,08,25,05,25,8.90
2012,08,25,05,26,9.00
2012,08,25,05,27,9.00
2012,08,25,05,28,9.00
2012,08,25,05,29,9.10
2012,08,25,05,30,9.20
2012,08,25,05,31,9.20
2012,08,25,05,32,9.20
2012,08,25,05,33,9.20
2012,08,25,05,34,9.20
2012,08,25,05,35,9.20
2012,08,25,05,36,9.20
2012,08,25,05,37,9.20
2012,08,25,05,38,9.20
2012,08,25,05,39,9.20
2012,08,25,05,40,9.20
2012,08,25,05,41,9.20
2012,08,25,05,42,9.20
2012,08,25,05,43,9.20
2012,08,25,05,44,9.10
2012,08,25,05,45,9.10
2012,08,25,05,46,9.10
2012,08,25,05,47,9.10
2012,08,25,05,48,9.00
2012,08,25,05,49,9.00
2012,08,25,05,50,9.00
2012,08,25,05,51,9.00
2012,08,25,05,52,8.90
2012,08,25,05,53,8.90
2012,08,25,05,54,8.90
2012,08,25,05,55,8.90
2012,08,25,05,56,8.90
2012,08,25,05,57,8.90
2012,08,25,05,58,8.80
2012,08,25,05,59,8.80
2012,08,25,06,00,8.80
2012,08,25,06,01,8.80
2012,08,25,06,02,8.80
2012,08,25,06,03,8.70
2012,08,25,06,04,8.70
2012,08,25,06,05,8.70
2012,08,25,06,06,8.70
2012,08,25,06,07,8.70
2012,08,25,06,08,8.70
2012,08,25,06,09,8.60
2012,08,25,06,10,8.60
2012,08,25,06,11,8.60
2012,08,25,06,12,8.60
2012,08,25,06,13,8.60
2012,08,25,06,14,8.60
2012,08,25,06,15,8.50
2012,08,25,06,16,8.50
2012,08,25,06,17,8.50
2012,08,25,06,18,8.50
2012,08,25,06,19,8.50
2012,08,25,06,20,8.50
2012,08,25,06,21,8.50
2012,08,25,06,22,8.50
2012,08,25,06,23,8.50
2012,08,25,06,24,8.50
2012,08,25,06,25,8.50
2012,08,25,06,26,8.50
2012,08,25,06,27,8.50
2012,08,25,06,28,8.60
2012,08,25,06,29,8.60
2012,08,25,06,30,8.60
2012,08,25,06,31,8.60
2012,08,25,06,32,8.70
2012,08,25,06,33,8.80
2012,08,25,06,34,8.80
2012,08,25,06,35,8.80
2012,08,25,06,36,8.90
2012,08,25,06,37,8.90
2012,08,25,06,38,9.00
2012,08,25,06,39,9.00
2012,08,25,06,40,9.10
2012,08,25,06,41,9.20
2012,08,25,06,42,9.20
2012,08,25,06,43,9.20
2012,08,25,06,44,9.20
2012,08,25,06,45,9.20
2012,08,25,06,46,9.20
2012,08,25,06,47,9.20
2012,08,25,06,48,9.20
2012,08,25,06,49,9.20
2012,08,25,06,50,9.20
2012,08,25,06,51,9.20
2012,08,25,06,52,9.20
2012,08,25,06,53,9.20
2012,08,25,06,54,9.20
2012,08,25,06,55,9.20
2012,08,25,06,56,9.20
2012,08,25,06,57,9.20
2012,08,25,06,58,9.10
2012,08,25,06,59,9.10
2012,08,25,07,00,9.10
2012,08,25,07,01,9.10
2012,08,25,07,02,9.10
2012,08,25,07,03,9.10
2012,08,25,07,04,9.00
2012,08,25,07,05,9.00
2012,08,25,07,06,9.00
2012,08,25,07,07,9.00
2012,08,25,07,08,8.90
2012,08,25,07,09,8.90
2012,08,25,07,10,8.90
2012,08,25,07,11,8.90
2012,08,25,07,12,8.90
2012,08,25,07,13,8.90
2012,08,25,07,14,8.90
2012,08,25,07,15,8.80
2012,08,25,07,16,8.80
2012,08,25,07,17,8.80
2012,08,25,07,18,8.80
2012,08,25,07,19,8.80
2012,08,25,07,20,8.80
2012,08,25,07,21,8.80
2012,08,25,07,22,8.80
2012,08,25,07,23,8.80
2012,08,25,07,24,8.80
2012,08,25,07,25,8.80
2012,08,25,07,26,8.90
2012,08,25,07,27,8.80
2012,08,25,07,28,8.90
2012,08,25,07,29,8.90
2012,08,25,07,30,8.90
2012,08,25,07,31,8.90
2012,08,25,07,32,8.90
2012,08,25,07,33,8.90
2012,08,25,07,34,8.90
2012,08,25,07,35,8.90
2012,08,25,07,36,8.90
2012,08,25,07,37,8.90
2012,08,25,07,38,8.90
2012,08,25,07,39,9.00
2012,08,25,07,40,9.00
2012,08,25,07,41,9.00
2012,08,25,07,42,9.10
2012,08,25,07,43,9.10
2012,08,25,07,44,9.10
2012,08,25,07,45,9.10
2012,08,25,07,46,9.10
2012,08,25,07,47,9.20
2012,08,25,07,48,9.20
2012,08,25,07,49,9.20
2012,08,25,07,50,9.20
2012,08,25,07,51,9.30
2012,08,25,07,52,9.30
2012,08,25,07,53,9.30
2012,08,25,07,54,9.40
2012,08,25,07,55,9.50
2012,08,25,07,56,9.60
2012,08,25,07,57,9.70
2012,08,25,07,58,9.80
2012,08,25,07,59,9.90
2012,08,25,08,00,10.00
2012,08,25,08,01,10.10
2012,08,25,08,02,10.30
2012,08,25,08,03,10.40
2012,08,25,08,04,10.50
2012,08,25,08,05,10.60
2012,08,25,08,06,10.80
2012,08,25,08,07,10.90
2012,08,25,08,08,11.10
2012,08,25,08,09,11.20
2012,08,25,08,10,11.30
2012,08,25,08,11,11.40
2012,08,25,08,12,11.50
2012,08,25,08,13,11.70
2012,08,25,08,14,11.80
2012,08,25,08,15,12.00
2012,08,25,08,16,12.20
2012,08,25,08,17,12.30
2012,08,25,08,18,12.50
2012,08,25,08,19,12.70
2012,08,25,08,20,12.90
2012,08,25,08,21,13.00
2012,08,25,08,22,13.20
2012,08,25,08,23,13.30
2012,08,25,08,24,13.50
2012,08,25,08,25,13.60
2012,08,25,08,26,13.80
2012,08,25,08,27,13.90
2012,08,25,08,28,14.00
2012,08,25,08,29,14.10
2012,08,25,08,30,14.20
2012,08,25,08,31,14.30
2012,08,25,08,32,14.40
2012,08,25,08,33,14.50
2012,08,25,08,34,14.60
2012,08,25,08,35,14.70
2012,08,25,08,36,14.80
2012,08,25,08,37,14.80
2012,08,25,08,38,15.00
2012,08,25,08,39,15.00
2012,08,25,08,40,15.00
2012,08,25,08,41,15.00
2012,08,25,08,42,15.00
2012,08,25,08,43,15.10
2012,08,25,08,44,15.20
2012,08,25,08,45,15.30
2012,08,25,08,46,15.30
2012,08,25,08,47,15.40
2012,08,25,08,48,15.40
2012,08,25,08,49,15.50
2012,08,25,08,50,15.50
2012,08,25,08,51,15.60
2012,08,25,08,52,15.60
2012,08,25,08,53,15.60
2012,08,25,08,54,15.70
2012,08,25,08,55,15.70
2012,08,25,08,56,15.80
2012,08,25,08,57,15.80
2012,08,25,08,58,15.80
2012,08,25,08,59,15.80
2012,08,25,09,00,15.80
2012,08,25,09,01,15.80
2012,08,25,09,02,15.80
2012,08,25,09,03,15.90
2012,08,25,09,04,15.90
2012,08,25,09,05,15.90
2012,08,25,09,06,15.90
2012,08,25,09,07,15.90
2012,08,25,09,08,15.90
2012,08,25,09,09,15.90
2012,08,25,09,10,15.90
2012,08,25,09,11,15.90
2012,08,25,09,12,15.90
2012,08,25,09,13,16.00
2012,08,25,09,14,16.00
2012,08,25,09,15,16.00
2012,08,25,09,16,16.10
2012,08,25,09,17,16.10
2012,08,25,09,18,16.10
2012,08,25,09,19,16.10
2012,08,25,09,20,16.20
2012,08,25,09,21,16.20
2012,08,25,09,22,16.30
2012,08,25,09,23,16.30
2012,08,25,09,24,16.30
2012,08,25,09,25,16.40
2012,08,25,09,26,16.40
2012,08,25,09,27,16.50
2012,08,25,09,28,16.50
2012,08,25,09,29,16.50
2012,08,25,09,30,16.50
2012,08,25,09,31,16.60
2012,08,25,09,32,16.50
2012,08,25,09,33,16.50
2012,08,25,09,34,16.50
2012,08,25,09,35,16.50
2012,08,25,09,36,16.60
2012,08,25,09,37,16.60
2012,08,25,09,38,16.60
2012,08,25,09,39,16.70
2012,08,25,09,40,16.70
2012,08,25,09,41,16.70
2012,08,25,09,42,16.70
2012,08,25,09,43,16.70
2012,08,25,09,44,16.70
2012,08,25,09,45,16.80
2012,08,25,09,46,16.80
2012,08,25,09,47,16.80
2012,08,25,09,48,16.80
2012,08,25,09,49,16.80
2012,08,25,09,50,16.80
2012,08,25,09,51,16.80
2012,08,25,09,52,16.80
2012,08,25,09,53,16.80
2012,08,25,09,54,16.80
2012,08,25,09,55,16.80
2012,08,25,09,56,16.90
2012,08,25,09,57,16.90
2012,08,25,09,58,16.90
2012,08,25,09,59,16.90
2012,08,25,10,00,16.90
2012,08,25,10,01,16.90
2012,08,25,10,02,16.90
2012,08,25,10,03,17.00
2012,08,25,10,04,17.00
2012,08,25,10,05,17.10
2012,08,25,10,06,17.10
2012,08,25,10,07,17.10
2012,08,25,10,08,17.10
2012,08,25,10,09,17.10
2012,08,25,10,10,17.10
2012,08,25,10,11,17.10
2012,08,25,10,12,17.10
2012,08,25,10,13,17.00
2012,08,25,10,14,17.00
2012,08,25,10,15,16.90
2012,08,25,10,16,16.90
2012,08,25,10,17,16.90
2012,08,25,10,18,16.90
2012,08,25,10,19,16.90
2012,08,25,10,20,16.90
2012,08,25,10,21,16.90
2012,08,25,10,22,16.90
2012,08,25,10,23,16.90
2012,08,25,10,24,16.90
2012,08,25,10,25,16.90
2012,08,25,10,26,16.90
2012,08,25,10,27,16.90
2012,08,25,10,28,16.90
2012,08,25,10,29,16.90
2012,08,25,10,30,16.90
2012,08,25,10,31,16.90
2012,08,25,10,32,16.90
2012,08,25,10,33,16.90
2012,08,25,10,34,16.90
2012,08,25,10,35,16.90
2012,08,25,10,36,16.90
2012,08,25,10,37,16.90
2012,08,25,10,38,16.90
2012,08,25,10,39,16.90
2012,08,25,10,40,16.90
2012,08,25,10,41,16.90
2012,08,25,10,42,16.90
2012,08,25,10,43,16.90
2012,08,25,10,44,17.00
2012,08,25,10,45,17.00
2012,08,25,10,46,17.00
2012,08,25,10,47,17.00
2012,08,25,10,48,17.00
2012,08,25,10,49,17.00
2012,08,25,10,50,17.00
2012,08,25,10,51,17.00
2012,08,25,10,52,17.00
2012,08,25,10,53,17.10
2012,08,25,10,54,17.10
2012,08,25,10,55,17.10
2012,08,25,10,56,17.20
2012,08,25,10,57,17.20
2012,08,25,10,58,17.20
2012,08,25,10,59,17.30
2012,08,25,11,00,17.40
2012,08,25,11,01,17.50
2012,08,25,11,02,17.50
2012,08,25,11,03,17.60
2012,08,25,11,04,17.60
2012,08,25,11,05,17.70
2012,08,25,11,06,17.70
2012,08,25,11,07,17.80
2012,08,25,11,08,17.80
2012,08,25,11,09,17.90
2012,08,25,11,10,17.90
2012,08,25,11,11,18.00
2012,08,25,11,12,18.00
2012,08,25,11,13,18.00
2012,08,25,11,14,18.00
2012,08,25,11,15,18.00
2012,08,25,11,16,18.00
2012,08,25,11,17,18.10
2012,08,25,11,18,18.10
2012,08,25,11,19,18.10
2012,08,25,11,20,18.10
2012,08,25,11,21,18.20
2012,08,25,11,22,18.20
2012,08,25,11,23,18.20
2012,08,25,11,24,18.20
2012,08,25,11,25,18.20
2012,08,25,11,26,18.20
2012,08,25,11,27,18.20
2012,08,25,11,28,18.20
2012,08,25,11,29,18.30
2012,08,25,11,30,18.40
2012,08,25,11,31,18.50
2012,08,25,11,32,18.50
2012,08,25,11,33,18.50
2012,08,25,11,34,18.50
2012,08,25,11,35,18.40
2012,08,25,11,36,18.40
2012,08,25,11,37,18.40
2012,08,25,11,38,18.50
2012,08,25,11,39,18.50
2012,08,25,11,40,18.60
2012,08,25,11,41,18.60
2012,08,25,11,42,18.70
2012,08,25,11,43,18.70
2012,08,25,11,44,18.70
2012,08,25,11,45,18.80
2012,08,25,11,46,18.90
2012,08,25,11,47,18.80
2012,08,25,11,48,18.70
2012,08,25,11,49,18.70
2012,08,25,11,50,18.70
2012,08,25,11,51,18.70
2012,08,25,11,52,18.70
2012,08,25,11,53,18.70
2012,08,25,11,54,18.70
2012,08,25,11,55,18.70
2012,08,25,11,56,18.80
2012,08,25,11,57,18.80
2012,08,25,11,58,18.80
2012,08,25,11,59,18.90
2012,08,25,12,00,19.00
2012,08,25,12,01,19.00
2012,08,25,12,02,19.00
2012,08,25,12,03,19.00
2012,08,25,12,04,19.00
2012,08,25,12,05,19.00
2012,08,25,12,06,19.00
2012,08,25,12,07,18.90
2012,08,25,12,08,19.00
2012,08,25,12,09,19.00
2012,08,25,12,10,18.90
2012,08,25,12,11,18.90
2012,08,25,12,12,18.90
2012,08,25,12,13,18.80
2012,08,25,12,14,18.90
2012,08,25,12,15,18.90
2012,08,25,12,16,19.00
2012,08,25,12,17,19.10
2012,08,25,12,18,19.10
2012,08,25,12,19,19.10
2012,08,25,12,20,19.10
2012,08,25,12,21,19.10
2012,08,25,12,22,19.10
2012,08,25,12,23,19.10
2012,08,25,12,24,19.20
2012,08,25,12,25,19.20
2012,08,25,12,26,19.30
2012,08,25,12,27,19.30
2012,08,25,12,28,19.40
2012,08,25,12,29,19.40
2012,08,25,12,30,19.40
2012,08,25,12,31,19.40
2012,08,25,12,32,19.30
2012,08,25,12,33,19.30
2012,08,25,12,34,19.30
2012,08,25,12,35,19.30
2012,08,25,12,36,19.30
2012,08,25,12,37,19.30
2012,08,25,12,38,19.30
2012,08,25,12,39,19.30
2012,08,25,12,40,19.40
2012,08,25,12,41,19.40
2012,08,25,12,42,19.50
2012,08,25,12,43,19.60
2012,08,25,12,44,19.60
2012,08,25,12,45,19.60
2012,08,25,12,46,19.50
2012,08,25,12,47,19.40
2012,08,25,12,48,19.40
2012,08,25,12,49,19.50
2012,08,25,12,50,19.50
2012,08,25,12,51,19.60
2012,08,25,12,52,19.60
2012,08,25,12,53,19.60
2012,08,25,12,54,19.60
2012,08,25,12,55,19.60
2012,08,25,12,56,19.70
2012,08,25,12,57,19.80
2012,08,25,12,58,19.90
2012,08,25,12,59,20.00
2012,08,25,13,00,20.10
2012,08,25,13,01,20.10
2012,08,25,13,02,20.10
2012,08,25,13,03,20.00
2012,08,25,13,04,20.00
2012,08,25,13,05,20.00
2012,08,25,13,06,20.00
2012,08,25,13,07,20.10
2012,08,25,13,08,20.10
2012,08,25,13,09,20.10
2012,08,25,13,10,20.10
2012,08,25,13,11,20.10
2012,08,25,13,12,20.10
2012,08,25,13,13,20.10
2012,08,25,13,14,20.10
2012,08,25,13,15,20.20
2012,08,25,13,16,20.20
2012,08,25,13,17,20.20
2012,08,25,13,18,20.30
2012,08,25,13,19,20.30
2012,08,25,13,20,20.20
2012,08,25,13,21,20.30
2012,08,25,13,22,20.30
2012,08,25,13,23,20.30
2012,08,25,13,24,20.40
2012,08,25,13,25,20.40
2012,08,25,13,26,20.40
2012,08,25,13,27,20.50
2012,08,25,13,28,20.60
2012,08,25,13,29,20.60
2012,08,25,13,30,20.70
2012,08,25,13,31,20.80
2012,08,25,13,32,20.80
2012,08,25,13,33,20.90
2012,08,25,13,34,20.90
2012,08,25,13,35,21.00
2012,08,25,13,36,21.00
2012,08,25,13,37,20.90
2012,08,25,13,38,20.80
2012,08,25,13,39,20.60
2012,08,25,13,40,20.40
2012,08,25,13,41,20.30
2012,08,25,13,42,20.30
2012,08,25,13,43,20.20
2012,08,25,13,44,20.20
2012,08,25,13,45,20.30
2012,08,25,13,46,20.30
2012,08,25,13,47,20.40
2012,08,25,13,48,20.50
2012,08,25,13,49,20.50
2012,08,25,13,50,20.60
2012,08,25,13,51,20.60
2012,08,25,13,52,20.70
2012,08,25,13,53,20.70
2012,08,25,13,54,20.80
2012,08,25,13,55,20.80
2012,08,25,13,56,20.80
2012,08,25,13,57,20.80
2012,08,25,13,58,20.80
2012,08,25,13,59,20.70
2012,08,25,14,00,20.70
2012,08,25,14,01,20.60
2012,08,25,14,02,20.60
2012,08,25,14,03,20.60
2012,08,25,14,04,20.60
2012,08,25,14,05,20.50
2012,08,25,14,06,20.40
2012,08,25,14,07,20.30
2012,08,25,14,08,20.30
2012,08,25,14,09,20.30
2012,08,25,14,10,20.30
2012,08,25,14,11,20.30
2012,08,25,14,12,20.30
2012,08,25,14,13,20.30
2012,08,25,14,14,20.40
2012,08,25,14,15,20.30
2012,08,25,14,16,20.30
2012,08,25,14,17,20.40
2012,08,25,14,18,20.40
2012,08,25,14,19,20.50
2012,08,25,14,20,20.50
2012,08,25,14,21,20.60
2012,08,25,14,22,20.70
2012,08,25,14,23,20.70
2012,08,25,14,24,20.70
2012,08,25,14,25,20.70
2012,08,25,14,26,20.70
2012,08,25,14,27,20.70
2012,08,25,14,28,20.80
2012,08,25,14,29,20.80
2012,08,25,14,30,20.90
2012,08,25,14,31,20.90
2012,08,25,14,32,21.00
2012,08,25,14,33,21.00
2012,08,25,14,34,21.10
2012,08,25,14,35,21.10
2012,08,25,14,36,21.20
2012,08,25,14,37,21.30
2012,08,25,14,38,21.30
2012,08,25,14,39,21.40
2012,08,25,14,40,21.40
2012,08,25,14,41,21.40
2012,08,25,14,42,21.50
2012,08,25,14,43,21.40
2012,08,25,14,44,21.30
2012,08,25,14,45,21.30
2012,08,25,14,46,21.30
2012,08,25,14,47,21.30
2012,08,25,14,48,21.20
2012,08,25,14,49,21.20
2012,08,25,14,50,21.10
2012,08,25,14,51,21.10
2012,08,25,14,52,21.10
2012,08,25,14,53,21.10
2012,08,25,14,54,21.10
2012,08,25,14,55,21.10
2012,08,25,14,56,21.20
2012,08,25,14,57,21.30
2012,08,25,14,58,21.30
2012,08,25,14,59,21.30
2012,08,25,15,00,21.30
2012,08,25,15,01,21.30
2012,08,25,15,02,21.30
2012,08,25,15,03,21.30
2012,08,25,15,04,21.30
2012,08,25,15,05,21.30
2012,08,25,15,06,21.30
2012,08,25,15,07,21.30
2012,08,25,15,08,21.30
2012,08,25,15,09,21.30
2012,08,25,15,10,21.30
2012,08,25,15,11,21.40
2012,08,25,15,12,21.40
2012,08,25,15,13,21.50
2012,08,25,15,14,21.60
2012,08,25,15,15,21.70
2012,08,25,15,16,21.70
2012,08,25,15,17,21.80
2012,08,25,15,18,21.80
2012,08,25,15,19,21.70
2012,08,25,15,20,21.70
2012,08,25,15,21,21.60
2012,08,25,15,22,21.60
2012,08,25,15,23,21.60
2012,08,25,15,24,21.60
2012,08,25,15,25,21.60
2012,08,25,15,26,21.60
2012,08,25,15,27,21.60
2012,08,25,15,28,21.60
2012,08,25,15,29,21.60
2012,08,25,15,30,21.60
2012,08,25,15,31,21.60
2012,08,25,15,32,21.70
2012,08,25,15,33,21.70
2012,08,25,15,34,21.70
2012,08,25,15,35,21.80
2012,08,25,15,36,21.80
2012,08,25,15,37,21.90
2012,08,25,15,38,21.90
2012,08,25,15,39,22.00
2012,08,25,15,40,22.00
2012,08,25,15,41,21.90
2012,08,25,15,42,21.90
2012,08,25,15,43,21.90
2012,08,25,15,44,21.90
2012,08,25,15,45,21.90
2012,08,25,15,46,22.00
2012,08,25,15,47,22.00
2012,08,25,15,48,22.10
2012,08,25,15,49,22.10
2012,08,25,15,50,22.20
2012,08,25,15,51,22.20
2012,08,25,15,52,22.20
2012,08,25,15,53,22.30
2012,08,25,15,54,22.20
2012,08,25,15,55,22.20
2012,08,25,15,56,22.20
2012,08,25,15,57,22.20
2012,08,25,15,58,22.20
2012,08,25,15,59,22.20
2012,08,25,16,00,22.20
2012,08,25,16,01,22.10
2012,08,25,16,02,22.10
2012,08,25,16,03,22.10
2012,08,25,16,04,22.10
2012,08,25,16,05,22.10
2012,08,25,16,06,22.10
2012,08,25,16,07,22.00
2012,08,25,16,08,22.00
2012,08,25,16,09,21.90
2012,08,25,16,10,21.80
2012,08,25,16,11,21.80
2012,08,25,16,12,21.80
2012,08,25,16,13,21.70
2012,08,25,16,14,21.70
2012,08,25,16,15,21.70
2012,08,25,16,16,21.80
2012,08,25,16,17,21.80
2012,08,25,16,18,21.80
2012,08,25,16,19,21.80
2012,08,25,16,20,21.90
2012,08,25,16,21,21.90
2012,08,25,16,22,21.80
2012,08,25,16,23,21.80
2012,08,25,16,24,21.80
2012,08,25,16,25,21.80
2012,08,25,16,26,21.80
2012,08,25,16,27,21.80
2012,08,25,16,28,21.80
2012,08,25,16,29,21.90
2012,08,25,16,30,21.90
2012,08,25,16,31,21.90
2012,08,25,16,32,21.90
2012,08,25,16,33,21.90
2012,08,25,16,34,21.90
2012,08,25,16,35,21.90
2012,08,25,16,36,21.90
2012,08,25,16,37,21.90
2012,08,25,16,38,21.90
2012,08,25,16,39,22.00
2012,08,25,16,40,22.10
2012,08,25,16,41,22.10
2012,08,25,16,42,22.10
2012,08,25,16,43,22.10
2012,08,25,16,44,22.10
2012,08,25,16,45,22.00
2012,08,25,16,46,22.00
2012,08,25,16,47,22.00
2012,08,25,16,48,22.00
2012,08,25,16,49,22.00
2012,08,25,16,50,22.00
2012,08,25,16,51,22.10
2012,08,25,16,52,22.00
2012,08,25,16,53,22.10
2012,08,25,16,54,22.00
2012,08,25,16,55,22.00
2012,08,25,16,56,22.00
2012,08,25,16,57,21.90
2012,08,25,16,58,21.90
2012,08,25,16,59,21.90
2012,08,25,17,00,21.90
2012,08,25,17,01,21.80
2012,08,25,17,02,21.80
2012,08,25,17,03,21.90
2012,08,25,17,04,21.90
2012,08,25,17,05,22.00
2012,08,25,17,06,22.00
2012,08,25,17,07,22.10
2012,08,25,17,08,22.10
2012,08,25,17,09,22.10
2012,08,25,17,10,22.10
2012,08,25,17,11,22.10
2012,08,25,17,12,22.00
2012,08,25,17,13,22.00
2012,08,25,17,14,22.00
2012,08,25,17,15,21.90
2012,08,25,17,16,21.90
2012,08,25,17,17,21.90
2012,08,25,17,18,21.90
2012,08,25,17,19,22.00
2012,08,25,17,20,22.00
2012,08,25,17,21,22.00
2012,08,25,17,22,22.00
2012,08,25,17,23,22.00
2012,08,25,17,24,22.00
2012,08,25,17,25,22.00
2012,08,25,17,26,22.00
2012,08,25,17,27,22.00
2012,08,25,17,28,22.00
2012,08,25,17,29,22.00
2012,08,25,17,30,21.90
2012,08,25,17,31,21.90
2012,08,25,17,32,21.90
2012,08,25,17,33,21.90
2012,08,25,17,34,21.90
2012,08,25,17,35,21.90
2012,08,25,17,36,21.90
2012,08,25,17,37,21.90
2012,08,25,17,38,21.90
2012,08,25,17,39,21.90
2012,08,25,17,40,21.90